Powrót do katalogu

CZ-6A DEB

AktywnySSO
NORAD 54414·DEBRIS·🇨🇳 China

Wystrzelony Nov 11, 2022 z Taiyuan Satellite Launch Center

Loading…

Następne Przeloty (najbliższe 24 godziny)

TLE

ŚwieżeSource: Space-Track

Epoka: Sep 14, 2026, 09:12 UTC

1 54414U 22151EN  26257.38347324 -.00000359  00000-0 -21433-3 0  9990
2 54414  98.9659 233.3770 0116741 182.3822 177.6799 13.96974094195167

Śledź CZ-6A DEB w czasie rzeczywistym z AllMySat

Download on the App Store